Camarillo, CA

10:52 PM PST on February 23, 2018 (GMT -0800)
Camarillo

Weather History for KCMA - August, 2014

Change the Weather History Date:

Saturday, August 23, 2014

  Actual Average Record
Temperature  
Mean Temperature 73 °F 68 °F  
Max Temperature 79 °F 77 °F 94 °F (1968)
Min Temperature 67 °F 59 °F 48 °F (1947)
Degree Days  
Heating Degree Days 0 0  
Month to date heating degree days 0 0  
Since 1 June heating degree days 12 53  
Since 1 July heating degree days 0 10  
Cooling Degree Days 8 3  
Month to date cooling degree days 152 69  
Year to date cooling degree days 570 194  
Since 1 June cooling degree days 422 163  
Growing Degree Days 23 (Base 50)    
Moisture  
Dew Point 60 °F    
Average Humidity 66    
Maximum Humidity 81    
Minimum Humidity 50    
Precipitation  
Precipitation 0.00 in 0.01 in 0.00 in (2018)
Month to date precipitation 0.03 0.03  
Year to date precipitation 4.22 11.03  
Since 1 July precipitation 0.03  
Sea Level Pressure  
Sea Level Pressure 29.95 in    
Wind  
Wind Speed 5 mph (West)    
Max Wind Speed 14 mph    
Max Gust Speed 19 mph    
Visibility 10 miles    
Events      
T = Trace of Precipitation, MM = Missing Value Source: NWS Daily Summary

Daily Weather History Graph

Daily Weather History Graph

Search for Another Location

Airport or City:

Trip Planner

Search our weather history database for the weather conditions in past years. The results will help you decide how hot, cold, wet, or windy it might be!

Date:

Astronomy

Aug. 23, 2014 Rise Set
Actual Time 6:23 AM PDT 7:33 PM PDT
Civil Twilight 5:57 AM PDT 7:59 PM PDT
Nautical Twilight 5:26 AM PDT 8:30 PM PDT
Astronomical Twilight 4:54 AM PDT 9:02 PM PDT
Moon 4:45 AM PDT (8/23) 6:20 PM PDT (8/23)
Length of Visible Light 14h 02m
Length of Day
13h 10m
Waning Crescent, 3% of the Moon is Illuminated
Aug 23
Waning Crescent
Aug 25
New
Sep 2
First Quarter
Sep 8
Full
Sep 15
Last Quarter

Hourly Weather History & Observations

Time (PDT) Temp. Dew Point Humidity Pressure Visibility Wind Dir Wind Speed Gust Speed Precip Events Conditions
12:55 AM 68.0 °F 61.0 °F 78% 29.96 in 10.0 mi North 5.8 mph - N/A   Overcast
2:55 AM 68.0 °F 60.1 °F 76% 29.96 in 9.0 mi West 3.5 mph - N/A   Overcast
3:13 AM 68.0 °F 60.1 °F 76% 29.94 in 9.0 mi WNW 4.6 mph - N/A   Overcast
4:55 AM 68.0 °F 60.1 °F 76% 29.97 in 10.0 mi NW 5.8 mph - N/A   Overcast
5:55 AM 68.0 °F 61.0 °F 78% 29.97 in 8.0 mi WNW 3.5 mph - N/A   Overcast
6:55 AM 68.0 °F 61.0 °F 78% 29.99 in 6.0 mi NW 3.5 mph - N/A   Haze
7:55 AM 69.1 °F 61.0 °F 75% 29.99 in 8.0 mi Calm Calm - N/A   Overcast
8:02 AM 69.1 °F 61.0 °F 75% 29.97 in 8.0 mi Calm Calm - N/A   Overcast
8:55 AM 71.1 °F 60.1 °F 68% 30.00 in 9.0 mi Calm Calm - N/A   Mostly Cloudy
9:55 AM 75.0 °F 57.9 °F 55% 30.00 in 10.0 mi East 3.5 mph - N/A   Clear
10:55 AM 77.0 °F 57.9 °F 52% 29.99 in 10.0 mi SSW 4.6 mph - N/A   Clear
11:55 AM 78.1 °F 60.1 °F 54% 29.98 in 10.0 mi West 10.4 mph - N/A   Clear
12:55 PM 78.1 °F 59.0 °F 52% 29.97 in 10.0 mi West 11.5 mph - N/A   Clear
1:55 PM 77.0 °F 59.0 °F 54% 29.95 in 10.0 mi SSW 10.4 mph 17.3 mph N/A   Clear
2:55 PM 77.0 °F 59.0 °F 54% 29.94 in 10.0 mi WSW 9.2 mph - N/A   Clear
3:55 PM 77.0 °F 57.9 °F 52% 29.91 in 10.0 mi SW 10.4 mph - N/A   Clear
4:55 PM 75.9 °F 59.0 °F 56% 29.91 in 10.0 mi SW 9.2 mph - N/A   Clear
5:55 PM 73.9 °F 60.1 °F 62% 29.90 in 10.0 mi West 10.4 mph - N/A   Clear
6:55 PM 71.1 °F 60.1 °F 68% 29.90 in 10.0 mi West 9.2 mph - N/A   Clear
7:55 PM 69.1 °F 59.0 °F 70% 29.90 in 10.0 mi West 6.9 mph - N/A   Clear
8:55 PM 68.0 °F 60.1 °F 76% 29.91 in 10.0 mi WSW 4.6 mph - N/A   Clear
9:55 PM 68.0 °F 60.1 °F 76% 29.92 in 10.0 mi Calm Calm - N/A   Mostly Cloudy
10:44 PM 68.0 °F 60.1 °F 76% 29.89 in 10.0 mi NW 4.6 mph - N/A   Overcast
10:55 PM 68.0 °F 60.1 °F 76% 29.91 in 10.0 mi West 4.6 mph - N/A   Overcast
11:55 PM 66.9 °F 60.1 °F 79% 29.91 in 10.0 mi Calm Calm - N/A   Overcast